Retour au catalogue

STARLINK-35836

ActifCommunicationsVLEO
NORAD 66571·PAYLOAD·🇺🇸 United States

Lancé Nov 21, 2025 depuis Cape Canaveral Space Force Station

Loading…

Prochains Passages (prochaines 24 heures)

TLE

FraisSource: CelesTrak SupGP

Époque: Sep 14, 2026, 23:16 UTC

1 66571C 25268Q   26257.96993056 -.00019524  00000+0 -70730-3 0  2576
2 66571  43.0017 358.4993 0001516 267.2517  76.1364 15.27582027    13

Suivez STARLINK-35836 en temps réel avec AllMySat

Download on the App Store